Location: DARK SKY Beskydy - Park tmavé oblohy, www.darkskybeskydy.cz
(49.4926°N, 18.5016°E)
Time: 10:43:21
(UTC+01:00)

S-56A Canister/Altair - All Passes

Search period start: 25 February 2024 00:00
Search period end: 06 March 2024 00:00
Orbit: 640 x 2488 km, 38.9° (Epoch: 24 February)

Date Brightness Start Highest point End Pass type
(mag) Time Alt. Az. Time Alt. Az. Time Alt. Az.
25 Feb - 08:56:38 10° S 09:00:04 15° SSE 09:03:01 10° SE daylight
25 Feb - 10:58:37 10° SW 11:03:01 24° S 11:06:44 10° ESE daylight
25 Feb - 13:02:18 10° WSW 13:05:43 20° SSW 13:08:58 10° SE daylight
26 Feb - 08:23:18 10° S 08:26:50 14° SSE 08:29:53 10° SE daylight
26 Feb - 10:25:07 10° SW 10:29:52 24° S 10:33:46 10° ESE daylight
26 Feb - 12:28:53 10° WSW 12:32:38 21° SSW 12:36:03 10° SE daylight
27 Feb - 07:49:58 10° S 07:53:35 14° SSE 07:56:41 10° SE daylight
27 Feb - 09:51:34 10° SW 09:56:43 24° S 10:00:48 10° ESE daylight
27 Feb - 11:55:24 10° WSW 11:59:33 23° S 12:03:10 10° SE daylight
27 Feb - 14:01:55 10° SSW 14:02:00 10° SSW 14:02:06 10° SSW daylight
28 Feb - 07:16:39 10° S 07:20:17 14° SSE 07:23:26 10° SE daylight
28 Feb - 09:17:55 10° SW 09:23:31 25° S 09:27:50 10° ESE daylight
28 Feb - 11:21:50 10° WSW 11:26:26 25° S 11:30:17 10° SE daylight
28 Feb - 13:27:10 10° SW 13:28:55 12° SSW 13:30:38 10° S daylight
29 Feb - 06:43:21 10° S 06:46:57 13° SSE 06:50:05 10° SE daylight
29 Feb - 08:44:14 10° SW 08:50:17 25° SSE 08:54:53 10° ESE daylight
29 Feb - 10:48:11 10° WSW 10:53:19 27° S 10:57:25 10° SE daylight
29 Feb - 12:53:16 10° WSW 12:55:51 14° SSW 12:58:15 10° S daylight
01 Mar - 06:10:09 10° S 06:13:35 12° SSE 06:16:38 10° SE daylight
01 Mar - 08:10:30 10° SW 08:17:00 25° SSE 08:21:54 10° ESE daylight
01 Mar - 10:14:28 10° WSW 10:20:10 29° S 10:24:33 10° SE daylight
01 Mar - 12:19:28 10° WSW 12:22:46 17° SSW 12:25:43 10° SSE daylight
02 Mar - 05:37:05 10° SSE 05:40:11 12° SSE 05:42:59 10° SE visible
02 Mar - 07:36:43 10° SW 07:43:41 25° SSE 07:48:53 10° ESE daylight
02 Mar - 09:40:41 10° WSW 09:46:58 31° S 09:51:40 10° ESE daylight
02 Mar - 11:45:40 10° WSW 11:49:41 19° SSW 11:53:07 10° SSE daylight
03 Mar - 05:04:16 10° SSE 05:06:45 11° SE 05:09:02 10° SE visible
03 Mar - 07:02:55 10° SSW 07:10:19 25° SSE 07:15:50 10° ESE daylight
03 Mar - 09:06:49 10° WSW 09:13:44 33° S 09:18:46 10° ESE daylight
03 Mar - 11:11:51 10° WSW 11:16:35 23° SSW 11:20:26 10° SSE daylight
04 Mar - 04:32:18 10° SSE 04:33:16 10° SE 04:34:13 10° SE visible
04 Mar - 06:29:06 10° SSW 06:36:54 25° SSE 06:42:45 10° ESE daylight
04 Mar - 08:32:52 10° WSW 08:40:27 34° S 08:45:51 10° ESE daylight
04 Mar - 10:37:58 10° WSW 10:43:27 26° SSW 10:47:43 10° SE daylight
05 Mar - 05:55:17 10° SSW 06:03:25 24° SSE 06:09:36 10° ESE daylight
05 Mar - 07:58:53 10° SW 08:07:07 35° S 08:12:55 10° ESE daylight
05 Mar - 10:04:03 10° WSW 10:10:17 29° SSW 10:14:57 10° SE daylight
05 Mar - 12:11:16 10° SW 12:12:32 11° SW 12:13:46 10° SSW daylight
